Lumberton, NJ

10:06 AM EST on February 08, 2016 (GMT -0500)
South Jersey Regional

Weather History for KVAY - November, 2013

Change the Weather History Date:

Tuesday, November 19, 2013

  Actual Average (KWRI) Record (KWRI)
Temperature  
Mean Temperature 41 °F -  
Max Temperature 48 °F 53 °F 66 °F (2001)
Min Temperature 32 °F 33 °F 20 °F (2014)
Degree Days  
Heating Degree Days 24    
Moisture  
Dew Point 23 °F    
Average Humidity 45    
Maximum Humidity 64    
Minimum Humidity 36    
Precipitation  
Precipitation 0.00 in - - ()
Sea Level Pressure  
Sea Level Pressure 30.12 in    
Wind  
Wind Speed 10 mph (NW)    
Max Wind Speed 21 mph    
Max Gust Speed 30 mph    
Visibility 10 miles    
Events      
Averages and records for this station are not official NWS values.
T = Trace of Precipitation, MM = Missing Value Source: NWS Daily Summary

Daily Weather History Graph

Daily Weather History Graph

Search for Another Location

Airport or City:

Trip Planner

Search our weather history database for the weather conditions in past years. The results will help you decide how hot, cold, wet, or windy it might be!

Date:

Astronomy

Nov. 19, 2013 Rise Set
Actual Time 6:49 AM EST 4:40 PM EST
Civil Twilight 6:19 AM EST 5:09 PM EST
Nautical Twilight 5:46 AM EST 5:42 PM EST
Astronomical Twilight 5:14 AM EST 6:14 PM EST
Moon 6:29 PM EST (11/19) 8:26 AM EST (11/19)
Length of Visible Light 10h 49m
Length of Day
9h 50m
Waning Gibbous, 96% of the Moon is Illuminated
Nov 19
Waning Gibbous
Nov 25
Last Quarter
Dec 2
New
Dec 9
First Quarter
Dec 17
Full

Hourly Weather History & Observations

Time (EST) Temp. Windchill Dew Point Humidity Pressure Visibility Wind Dir Wind Speed Gust Speed Precip Events Conditions
12:54 AM 48.9 °F - 23.0 °F 36% 29.86 in 10.0 mi WNW 9.2 mph 21.9 mph N/A   Clear
1:54 AM 48.0 °F - 24.1 °F 39% 29.88 in 10.0 mi WNW 8.1 mph 19.6 mph N/A   Clear
2:54 AM 46.9 °F - 24.1 °F 41% 29.89 in 10.0 mi WNW 9.2 mph - N/A   Clear
3:54 AM 46.9 °F - 26.1 °F 44% 29.92 in 10.0 mi WNW 12.7 mph 19.6 mph N/A   Overcast
4:54 AM 45.0 °F 38.9 °F 25.0 °F 46% 29.95 in 10.0 mi NW 12.7 mph 19.6 mph N/A   Overcast
5:54 AM 44.1 °F 37.4 °F 24.1 °F 45% 29.99 in 10.0 mi NNW 13.8 mph 26.5 mph N/A   Mostly Cloudy
6:54 AM 43.0 °F 37.7 °F 23.0 °F 45% 30.03 in 10.0 mi NW 9.2 mph - N/A   Scattered Clouds
7:54 AM 43.0 °F 38.2 °F 24.1 °F 47% 30.05 in 10.0 mi NW 8.1 mph - N/A   Clear
8:54 AM 44.1 °F 38.6 °F 24.1 °F 45% 30.08 in 10.0 mi NW 10.4 mph 19.6 mph N/A   Mostly Cloudy
9:54 AM 46.9 °F - 24.1 °F 41% 30.10 in 10.0 mi North 15.0 mph 20.7 mph N/A   Mostly Cloudy
10:54 AM 46.0 °F 41.4 °F 25.0 °F 44% 30.12 in 10.0 mi NW 9.2 mph 23.0 mph N/A   Mostly Cloudy
11:54 AM 46.9 °F - 23.0 °F 39% 30.11 in 10.0 mi NW 10.4 mph 23.0 mph N/A   Clear
12:54 PM 48.0 °F - 24.1 °F 39% 30.11 in 10.0 mi NW 15.0 mph 24.2 mph N/A   Clear
1:54 PM 48.9 °F - 24.1 °F 38% 30.10 in 10.0 mi NNW 20.7 mph 29.9 mph N/A   Clear
2:54 PM 48.0 °F - 23.0 °F 37% 30.12 in 10.0 mi NW 13.8 mph 21.9 mph N/A   Clear
3:54 PM 46.0 °F 39.0 °F 21.9 °F 39% 30.15 in 10.0 mi NNW 17.3 mph 24.2 mph N/A   Clear
4:54 PM 43.0 °F 36.8 °F 21.0 °F 42% 30.19 in 10.0 mi NNW 11.5 mph 20.7 mph N/A   Clear
5:54 PM 42.1 °F 35.7 °F 21.0 °F 43% 30.23 in 10.0 mi NNW 11.5 mph 23.0 mph N/A   Clear
6:54 PM 39.0 °F 32.8 °F 21.0 °F 49% 30.26 in 10.0 mi NNW 9.2 mph - N/A   Clear
7:54 PM 37.9 °F 32.7 °F 21.0 °F 51% 30.28 in 10.0 mi NNW 6.9 mph - N/A   Clear
8:54 PM 37.0 °F - 21.0 °F 52% 30.32 in 10.0 mi Calm Calm - N/A   Clear
9:54 PM 34.0 °F 28.8 °F 21.0 °F 59% 30.33 in 10.0 mi North 5.8 mph - N/A   Clear
10:54 PM 35.1 °F 32.2 °F 21.0 °F 57% 30.35 in 10.0 mi NW 3.5 mph - N/A   Clear
11:54 PM 32.0 °F 25.6 °F 21.0 °F 64% 30.37 in 10.0 mi NNW 6.9 mph - N/A   Clear